sat.trackr.live / text

‹ back to catalog

STARLINK-11488 [DTC]

NORAD 62222 · 2024-231E

PAYLOAD ACTIVE UNKNOWN

§ Identity

Operator
Country
US
Launch date
2024-12-05
Launch site
AFWTR
Launch vehicle
Mass (kg)
RCS (m²)

Purposes: comms

External: N2YO · Heavens-Above · Gunter

§ Orbital elements

Epoch: 2026-05-25T02:48:57.928032Z

Period
91.73 min
Inclination
53.1571°
Eccentricity
0.0001169
Mean motion
15.69744690 rev/d
Perigee alt
358.8 km
Apogee alt
360.4 km
Semi-major
6,737.8 km
B*
1.0414e-3
RAAN
84.6275°
Arg perigee
48.7408°
Mean anomaly
311.3710°
Rev number
8,541

§ Raw data

STARLINK-11488 [DTC]1 62222U 24231E   26145.11733713  .00127720  00000+0  10414-2 0  99902 62222  53.1571  84.6275 0001169  48.7408 311.3710 15.69744690 85413

JSON: /api/v1/satellites/62222 · /tle

For live sub-satellite position, see the globe view (requires WebGL).

§ Visibility from observer

Set your observer location to see the next 7 days of passes ≥ 10°. The values pass through the URL so the page stays shareable.

No JS? Fill the form by hand. The geolocation button needs JavaScript.